Location: Oberkirch
(48.5323°N, 8.0787°E)
Time: 17:08:22
(UTC+00:00)

SR - Pass Details

Date: 18 February 2026
Orbit: 572 x 848 km, 66.7° (Epoch: 8 March)

Event Time Altitude Azimuth Distance (km) Brightness Sun altitude
Exits shadow 04:37:16 46° 246° (WSW) 806 ? -19.3°
Maximum altitude 04:38:23 66° 308° (NW) 657 ? -19.1°
Drops below altitude 10° 04:42:51 10° 31° (NNE) 2,006 ? -18.4°
Sets 04:45:14 0° 34° (NE) 2,959 ? -18.0°
